FW3849 Weather Reports


Display with metric or nautical units.
time (UTC)temp
F
wind
direction
speed
MPH
gust
MPH
rain 1hr
in
rain 24hr
in
rain mn
in
humidity
%
barometer
mb
20220705153523 85 189 4.0 12.0 0.00 0.00 0.00 47 1013.1
20220705153021 85 212 4.0 10.0 0.00 0.00 0.00 47 1013.3
20220705152519 84 203 7.0 13.0 0.00 0.00 0.00 47 1013.1
20220705152019 84 205 8.0 13.0 0.00 0.00 0.00 46 1013.0
20220705151519 84 193 6.0 10.0 0.00 0.00 0.00 47 1013.0
20220705151020 83 219 5.0 13.0 0.00 0.00 0.00 48 1012.9
20220705150519 83 208 8.0 13.0 0.00 0.00 0.00 48 1013.0
20220705150019 83 218 8.0 14.0 0.00 0.00 0.00 48 1013.1
20220705145519 82 214 9.0 13.0 0.00 0.00 0.00 49 1013.1
20220705144520 83 213 9.0 13.0 0.00 0.00 0.00 49 1013.1
20220705144017 82 219 6.0 14.0 0.00 0.00 0.00 49 1013.1
20220705143518 82 220 9.0 14.0 0.00 0.00 0.00 49 1013.1
20220705143017 82 197 8.0 14.0 0.00 0.00 0.00 50 1013.0
20220705142517 82 193 8.0 15.0 0.00 0.00 0.00 51 1012.9
20220705142022 82 208 9.0 14.0 0.00 0.00 0.00 50 1012.9
20220705141516 81 214 10.0 17.0 0.00 0.00 0.00 51 1012.9
20220705141015 81 203 11.0 17.0 0.00 0.00 0.00 51 1013.0
20220705140516 81 196 11.0 19.0 0.00 0.00 0.00 52 1013.1
20220705140021 80 195 10.0 21.0 0.00 0.00 0.00 52 1012.9
20220705135517 80 216 10.0 16.0 0.00 0.00 0.00 53 1012.9
20220705134515 80 185 10.0 15.0 0.00 0.00 0.00 54 1013.1
20220705134014 79 187 8.0 16.0 0.00 0.00 0.00 55 1013.0
20220705133513 79 209 9.0 16.0 0.00 0.00 0.00 55 1013.0
20220705133020 79 197 9.0 14.0 0.00 0.00 0.00 55 1013.0
20220705132512 79 209 8.0 14.0 0.00 0.00 0.00 55 1013.1
20220705132012 79 210 7.0 14.0 0.00 0.00 0.00 55 1013.1
20220705131514 79 203 8.0 15.0 0.00 0.00 0.00 55 1013.0
20220705131011 79 171 7.0 15.0 0.00 0.00 0.00 55 1013.0
20220705130511 78 182 6.0 13.0 0.00 0.00 0.00 55 1013.0
20220705130010 78 182 7.0 14.0 0.00 0.00 0.00 55 1012.9
20220705125510 78 132 7.0 14.0 0.00 0.00 0.00 56 1012.9
20220705124514 78 184 8.0 14.0 0.00 0.00 0.00 56 1012.9
20220705124011 78 189 6.0 14.0 0.00 0.00 0.00 55 1012.9
20220705123509 78 191 8.0 16.0 0.00 0.00 0.00 55 1012.9
20220705123009 78 194 8.0 14.0 0.00 0.00 0.00 55 1012.7
20220705122511 78 177 7.0 14.0 0.00 0.00 0.00 55 1012.7
20220705122010 78 142 8.0 14.0 0.00 0.00 0.00 55 1012.7
20220705121505 78 127 8.0 13.0 0.00 0.00 0.00 55 1012.7
20220705121005 78 228 8.0 16.0 0.00 0.00 0.00 55 1012.7
20220705120504 78 187 8.0 16.0 0.00 0.00 0.00 55 1012.5
20220705120004 78 187 7.0 14.0 0.00 0.00 0.00 54 1012.6
20220705115502 79 204 8.0 13.0 0.00 0.00 0.00 54 1012.6
20220705114613 79 190 7.0 13.0 0.00 0.00 0.00 54 1012.6
20220705114058 79 188 7.0 13.0 0.00 0.00 0.00 54 1012.7
20220705113559 79 194 7.0 13.0 0.00 0.00 0.00 54 1012.4
20220705113056 79 225 7.0 11.0 0.00 0.00 0.00 53 1012.4
20220705112559 79 193 6.0 13.0 0.00 0.00 0.00 53 1012.3
20220705112054 79 191 7.0 13.0 0.00 0.00 0.00 53 1012.4
20220705111554 79 171 5.0 15.0 0.00 0.00 0.00 53 1012.3
20220705111054 79 183 9.0 15.0 0.00 0.00 0.00 52 1012.3
20220705110552 80 245 4.0 18.0 0.00 0.00 0.00 52 1012.3
20220705110051 80 206 6.0 18.0 0.00 0.00 0.00 52 1012.3
20220705105551 80 189 8.0 16.0 0.00 0.00 0.00 51 1012.2
20220705104551 80 216 9.0 16.0 0.00 0.00 0.00 51 1012.1
20220705104053 80 204 9.0 14.0 0.00 0.00 0.00 52 1012.0
20220705103554 80 199 7.0 16.0 0.00 0.00 0.00 52 1012.1
20220705103058 80 171 10.0 16.0 0.00 0.00 0.00 52 1011.9
20220705102548 80 194 7.0 11.0 0.00 0.00 0.00 53 1012.0
20220705102049 80 188 5.0 16.0 0.00 0.00 0.00 53 1012.0
20220705101548 80 204 9.0 16.0 0.00 0.00 0.00 53 1012.0
20220705101047 80 189 8.0 15.0 0.00 0.00 0.00 53 1012.0
20220705100549 80 193 8.0 14.0 0.00 0.00 0.00 53 1012.0
20220705100046 81 184 7.0 15.0 0.00 0.00 0.00 53 1011.8
20220705095545 81 189 7.0 15.0 0.00 0.00 0.00 52 1011.8
20220705094544 81 165 7.0 17.0 0.00 0.00 0.00 52 1011.6
20220705094042 81 193 7.0 16.0 0.00 0.00 0.00 51 1011.6
20220705093541 82 214 11.0 18.0 0.00 0.00 0.00 50 1011.7
20220705093042 82 193 11.0 18.0 0.00 0.00 0.00 50 1011.8
20220705092541 82 242 9.0 19.0 0.00 0.00 0.00 50 1011.8
20220705092043 82 174 10.0 19.0 0.00 0.00 0.00 50 1011.7
20220705091540 82 196 11.0 17.0 0.00 0.00 0.00 50 1011.7
20220705091040 82 183 11.0 17.0 0.00 0.00 0.00 49 1011.6
20220705090539 82 202 12.0 17.0 0.00 0.00 0.00 49 1011.5
20220705090039 82 193 10.0 19.0 0.00 0.00 0.00 48 1011.5
20220705085538 82 181 10.0 19.0 0.00 0.00 0.00 47 1011.4
20220705084553 83 174 10.0 17.0 0.00 0.00 0.00 46 1011.3
20220705084038 83 214 11.0 16.0 0.00 0.00 0.00 45 1011.3
20220705083540 83 181 10.0 16.0 0.00 0.00 0.00 45 1011.4
20220705083043 83 191 9.0 17.0 0.00 0.00 0.00 44 1011.4
20220705082533 84 206 12.0 20.0 0.00 0.00 0.00 43 1011.4
20220705082032 84 204 10.0 23.0 0.00 0.00 0.00 41 1011.5
20220705081532 84 213 16.0 23.0 0.00 0.00 0.00 40 1011.4
20220705081031 84 180 12.0 22.0 0.00 0.00 0.00 38 1011.6
20220705080533 85 187 14.0 21.0 0.00 0.00 0.00 36 1011.6
20220705080029 85 180 11.0 20.0 0.00 0.00 0.00 35 1011.4
20220705075528 86 185 11.0 19.0 0.00 0.00 0.00 34 1011.6
20220705074527 86 206 10.0 19.0 0.00 0.00 0.00 34 1011.7
20220705074026 86 206 9.0 17.0 0.00 0.00 0.00 33 1011.6
20220705073527 86 231 11.0 17.0 0.00 0.00 0.00 33 1011.5
20220705073026 86 203 11.0 16.0 0.00 0.00 0.00 33 1011.4
20220705072526 86 206 10.0 17.0 0.00 0.00 0.00 33 1011.5
20220705072029 86 204 11.0 20.0 0.00 0.00 0.00 33 1011.5
20220705071526 86 196 10.0 20.0 0.00 0.00 0.00 33 1011.5
20220705071025 86 198 9.0 14.0 0.00 0.00 0.00 34 1011.5
20220705070525 86 198 7.0 15.0 0.00 0.00 0.00 34 1011.6
20220705070024 86 184 8.0 13.0 0.00 0.00 0.00 34 1011.4
20220705065523 86 208 8.0 13.0 0.00 0.00 0.00 34 1011.7
20220705064524 86 223 9.0 15.0 0.00 0.00 0.00 34 1011.6
20220705064023 86 206 7.0 15.0 0.00 0.00 0.00 35 1011.6
20220705063527 86 195 7.0 16.0 0.00 0.00 0.00 35 1011.7
20220705063033 86 213 9.0 16.0 0.00 0.00 0.00 35 1011.8
20220705062524 86 182 8.0 12.0 0.00 0.00 0.00 35 1011.7
20220705062026 87 199 7.0 14.0 0.00 0.00 0.00 35 1011.6
20220705061523 87 186 8.0 15.0 0.00 0.00 0.00 34 1011.5
20220705061023 87 183 8.0 15.0 0.00 0.00 0.00 34 1011.5
20220705060523 87 180 7.0 18.0 0.00 0.00 0.00 35 1011.7
20220705060022 87 201 9.0 18.0 0.00 0.00 0.00 35 1011.7
20220705055524 86 200 5.0 11.0 0.00 0.00 0.00 35 1011.9
20220705054532 86 194 6.0 11.0 0.00 0.00 0.00 35 1011.9
20220705054020 87 198 5.0 11.0 0.00 0.00 0.00 35 1012.0
20220705053519 87 198 7.0 12.0 0.00 0.00 0.00 35 1012.1
20220705053018 87 195 6.0 12.0 0.00 0.00 0.00 35 1012.1
20220705052517 86 196 7.0 10.0 0.00 0.00 0.00 36 1012.1
20220705052016 86 200 5.0 9.0 0.00 0.00 0.00 36 1012.0
20220705051515 86 194 4.0 6.0 0.00 0.00 0.00 37 1012.1
20220705051016 86 181 3.0 7.0 0.00 0.00 0.00 37 1012.1
20220705050514 86 185 2.0 5.0 0.00 0.00 0.00 37 1012.2
20220705050013 86 179 3.0 9.0 0.00 0.00 0.00 37 1012.2
20220705045512 86 160 3.0 5.0 0.00 0.00 0.00 36 1012.2
20220705044513 86 189 2.0 5.0 0.00 0.00 0.00 36 1012.2
20220705044012 87 162 3.0 8.0 0.00 0.00 0.00 36 1012.2
20220705043512 87 167 3.0 9.0 0.00 0.00 0.00 35 1012.3
20220705043012 87 200 4.0 9.0 0.00 0.00 0.00 35 1012.4
20220705042512 87 190 4.0 8.0 0.00 0.00 0.00 35 1012.3
20220705042011 87 196 3.0 8.0 0.00 0.00 0.00 35 1012.3
20220705041512 87 199 4.0 12.0 0.00 0.00 0.00 35 1012.3
20220705041011 87 200 5.0 12.0 0.00 0.00 0.00 35 1012.3
20220705040512 87 192 3.0 13.0 0.00 0.00 0.00 35 1012.2
20220705040011 87 193 4.0 12.0 0.00 0.00 0.00 35 1012.1
20220705035511 88 200 6.0 13.0 0.00 0.00 0.00 34 1012.0
20220705034614 88 201 9.0 12.0 0.00 0.00 0.00 35 1012.1
20220705034010 88 191 6.0 12.0 0.00 0.00 0.00 34 1012.0
20220705033510 88 198 7.0 15.0 0.00 0.00 0.00 34 1011.9
20220705033010 88 195 8.0 15.0 0.00 0.00 0.00 34 1011.8
20220705032511 88 191 6.0 11.0 0.00 0.00 0.00 34 1011.9
20220705032010 88 220 7.0 11.0 0.00 0.00 0.00 33 1011.9
20220705031511 88 199 6.0 12.0 0.00 0.00 0.00 33 1011.8
20220705031013 88 214 7.0 13.0 0.00 0.00 0.00 33 1011.8
20220705030509 88 221 7.0 13.0 0.00 0.00 0.00 33 1011.8
20220705030009 88 204 3.0 8.0 0.00 0.00 0.00 33 1011.7
20220705025511 88 204 3.0 8.0 0.00 0.00 0.00 33 1011.6
20220705024509 88 191 4.0 8.0 0.00 0.00 0.00 32 1011.5
20220705024010 89 177 5.0 10.0 0.00 0.00 0.00 32 1011.5
20220705023509 89 179 4.0 13.0 0.00 0.00 0.00 32 1011.3
20220705023010 89 201 5.0 15.0 0.00 0.00 0.00 32 1011.2
20220705022511 89 188 10.0 15.0 0.00 0.00 0.00 32 1011.2
20220705022009 89 193 8.0 17.0 0.00 0.00 0.00 31 1011.1
20220705021509 89 212 10.0 19.0 0.00 0.00 0.00 31 1011.2
20220705021112 89 205 10.0 19.0 0.00 0.00 0.00 30 1011.2
20220705020509 89 235 10.0 18.0 0.00 0.00 0.00 30 1011.1
20220705020009 89 213 10.0 15.0 0.00 0.00 0.00 30 1011.0
20220705015510 90 214 9.0 16.0 0.00 0.00 0.00 30 1010.9
20220705014507 90 190 10.0 20.0 0.00 0.00 0.00 30 1010.9
20220705014008 90 223 13.0 20.0 0.00 0.00 0.00 30 1010.7
20220705013507 90 216 13.0 19.0 0.00 0.00 0.00 30 1010.7
20220705013007 90 179 13.0 19.0 0.00 0.00 0.00 30 1010.5
20220705012507 90 218 12.0 17.0 0.00 0.00 0.00 30 1010.5
20220705012006 91 194 13.0 22.0 0.00 0.00 0.00 30 1010.5
20220705011506 91 200 12.0 18.0 0.00 0.00 0.00 30 1010.4
20220705011006 91 237 10.0 16.0 0.00 0.00 0.00 29 1010.3
20220705010508 91 207 9.0 17.0 0.00 0.00 0.00 29 1010.3
20220705010006 91 233 11.0 19.0 0.00 0.00 0.00 29 1010.3
20220705005506 92 181 9.0 18.0 0.00 0.00 0.00 29 1010.2
20220705004506 92 196 11.0 18.0 0.00 0.00 0.00 28 1010.4
20220705004005 92 209 9.0 16.0 0.00 0.00 0.00 28 1010.4
20220705003505 92 219 11.0 17.0 0.00 0.00 0.00 27 1010.7
20220705003005 92 203 8.0 22.0 0.00 0.00 0.00 27 1010.7
20220705002508 93 190 10.0 22.0 0.00 0.00 0.00 27 1010.7
20220705002109 93 162 11.0 17.0 0.00 0.00 0.00 27 1010.5
20220705001505 93 200 12.0 19.0 0.00 0.00 0.00 27 1010.6
20220705001006 94 198 12.0 19.0 0.00 0.00 0.00 26 1010.5
20220705000506 94 187 10.0 17.0 0.00 0.00 0.00 27 1010.5
20220705000004 94 193 11.0 18.0 0.00 0.00 0.00 27 1010.6
20220704235505 94 218 11.0 18.0 0.00 0.00 0.00 27 1010.6
20220704234504 94 229 12.0 18.0 0.00 0.00 0.00 27 1010.6
20220704234003 94 216 11.0 22.0 0.00 0.00 0.00 27 1010.5
20220704233503 94 186 9.0 20.0 0.00 0.00 0.00 27 1010.4
20220704233004 94 166 13.0 20.0 0.00 0.00 0.00 27 1010.4
20220704232503 94 229 12.0 22.0 0.00 0.00 0.00 27 1010.3
20220704232002 94 181 14.0 21.0 0.00 0.00 0.00 26 1010.2
20220704231502 95 195 12.0 21.0 0.00 0.00 0.00 26 1010.2
20220704231003 95 216 12.0 21.0 0.00 0.00 0.00 26 1010.1
20220704230502 95 185 10.0 18.0 0.00 0.00 0.00 25 1010.1
20220704230001 95 185 10.0 18.0 0.00 0.00 0.00 26 1009.9
20220704225503 95 206 12.0 21.0 0.00 0.00 0.00 26 1009.8
20220704225001 94 200 12.0 21.0 0.00 0.00 0.00 27 1009.7
20220704224503 95 199 12.0 20.0 0.00 0.00 0.00 26 1009.7
20220704224101 95 214 12.0 19.0 0.00 0.00 0.00 26 1009.7
20220704223604 95 198 9.0 17.0 0.00 0.00 0.00 26 1009.7
20220704223100 95 179 10.0 19.0 0.00 0.00 0.00 27 1009.7
20220704222559 95 189 11.0 21.0 0.00 0.00 0.00 27 1009.8
20220704221601 95 231 11.0 18.0 0.00 0.00 0.00 26 1010.0
20220704221058 95 200 11.0 18.0 0.00 0.00 0.00 25 1010.2
20220704220558 95 211 13.0 18.0 0.00 0.00 0.00 26 1010.2
20220704220108 95 179 9.0 15.0 0.00 0.00 0.00 26 1010.3
20220704215557 95 221 6.0 14.0 0.00 0.00 0.00 26 1010.5
20220704215056 96 171 8.0 17.0 0.00 0.00 0.00 26 1010.5
20220704214603 96 189 11.0 17.0 0.00 0.00 0.00 26 1010.6
20220704214156 96 250 11.0 18.0 0.00 0.00 0.00 26 1010.6
20220704213558 95 215 11.0 21.0 0.00 0.00 0.00 27 1010.7
20220704213056 95 208 14.0 22.0 0.00 0.00 0.00 27 1010.8
20220704212553 96 221 11.0 20.0 0.00 0.00 0.00 26 1010.8
20220704211552 96 180 9.0 20.0 0.00 0.00 0.00 27 1010.8
20220704211053 96 206 8.0 16.0 0.00 0.00 0.00 27 1010.9
20220704210551 96 176 8.0 19.0 0.00 0.00 0.00 26 1010.9
20220704210054 96 150 7.0 21.0 0.00 0.00 0.00 27 1010.9
20220704205550 96 191 11.0 21.0 0.00 0.00 0.00 27 1011.0
20220704205049 96 193 6.0 16.0 0.00 0.00 0.00 27 1010.9
20220704204553 96 201 11.0 16.0 0.00 0.00 0.00 27 1010.9
20220704204046 95 187 8.0 16.0 0.00 0.00 0.00 27 1011.0
20220704203548 95 191 9.0 19.0 0.00 0.00 0.00 27 1011.1
20220704203046 95 197 11.0 17.0 0.00 0.00 0.00 27 1011.0
20220704202543 95 208 7.0 15.0 0.00 0.00 0.00 27 1011.0
20220704201541 95 173 8.0 15.0 0.00 0.00 0.00 27 1011.1
20220704201042 95 148 9.0 19.0 0.00 0.00 0.00 28 1011.1
20220704200537 95 145 11.0 19.0 0.00 0.00 0.00 28 1011.3
20220704200036 95 179 6.0 17.0 0.00 0.00 0.00 28 1011.3
20220704195540 95 196 10.0 17.0 0.00 0.00 0.00 28 1011.3
20220704195037 95 144 10.0 16.0 0.00 0.00 0.00 28 1011.3
20220704194534 95 190 8.0 19.0 0.00 0.00 0.00 29 1011.3
20220704194033 95 197 10.0 19.0 0.00 0.00 0.00 29 1011.5
20220704193535 95 210 8.0 18.0 0.00 0.00 0.00 28 1011.5
20220704193039 94 181 8.0 18.0 0.00 0.00 0.00 29 1011.5
20220704192529 94 204 8.0 18.0 0.00 0.00 0.00 30 1011.6
20220704191530 93 212 9.0 17.0 0.00 0.00 0.00 31 1011.9
20220704191025 93 216 8.0 18.0 0.00 0.00 0.00 32 1012.0
20220704190524 93 178 5.0 18.0 0.00 0.00 0.00 32 1012.1
20220704190023 94 194 8.0 15.0 0.00 0.00 0.00 32 1012.2
20220704185521 94 181 8.0 13.0 0.00 0.00 0.00 33 1012.3
20220704185020 92 214 7.0 16.0 0.00 0.00 0.00 34 1012.3
20220704184519 92 228 9.0 17.0 0.00 0.00 0.00 34 1012.4
20220704184019 92 148 10.0 17.0 0.00 0.00 0.00 35 1012.5
20220704183520 92 187 6.0 15.0 0.00 0.00 0.00 35 1012.6
20220704183026 91 135 7.0 13.0 0.00 0.00 0.00 36 1012.7
20220704182516 91 183 6.0 12.0 0.00 0.00 0.00 35 1012.7
20220704181515 91 230 9.0 16.0 0.00 0.00 0.00 36 1012.8
20220704181016 90 171 7.0 19.0 0.00 0.00 0.00 38 1012.9
20220704180514 90 196 7.0 19.0 0.00 0.00 0.00 38 1013.0
20220704180013 90 196 7.0 15.0 0.00 0.00 0.00 38 1012.9
20220704175513 90 202 7.0 16.0 0.00 0.00 0.00 38 1013.0
20220704175012 90 192 10.0 16.0 0.00 0.00 0.00 38 1013.1
20220704174513 90 186 8.0 15.0 0.00 0.00 0.00 39 1013.1
20220704174011 89 117 7.0 17.0 0.00 0.00 0.00 39 1013.1
20220704173509 89 216 8.0 17.0 0.00 0.00 0.00 40 1013.3
20220704173026 89 208 10.0 17.0 0.00 0.00 0.00 40 1013.2
20220704172508 89 260 7.0 14.0 0.00 0.00 0.00 40 1013.4
20220704171508 88 216 10.0 15.0 0.00 0.00 0.00 41 1013.3
20220704171007 88 191 7.0 16.0 0.00 0.00 0.00 42 1013.3
20220704170507 87 189 9.0 16.0 0.00 0.00 0.00 42 1013.3
20220704170007 88 202 9.0 15.0 0.00 0.00 0.00 42 1013.4
20220704165507 88 200 10.0 16.0 0.00 0.00 0.00 43 1013.4
20220704165005 87 207 10.0 16.0 0.00 0.00 0.00 43 1013.4
20220704164504 87 173 9.0 17.0 0.00 0.00 0.00 44 1013.4
20220704164004 87 216 10.0 19.0 0.00 0.00 0.00 44 1013.4
20220704163503 86 223 9.0 19.0 0.00 0.00 0.00 44 1013.4
20220704163001 86 207 10.0 18.0 0.00 0.00 0.00 44 1013.4
20220704162601 86 215 10.0 18.0 0.00 0.00 0.00 45 1013.3
20220704161559 85 205 11.0 16.0 0.00 0.00 0.00 45 1013.4
20220704161101 85 200 10.0 18.0 0.00 0.00 0.00 46 1013.5
20220704160557 85 204 10.0 18.0 0.00 0.00 0.00 46 1013.5
20220704160058 84 210 11.0 18.0 0.00 0.00 0.00 47 1013.5
20220704155557 84 229 10.0 18.0 0.00 0.00 0.00 47 1013.6
20220704155054 84 212 9.0 17.0 0.00 0.00 0.00 47 1013.6
20220704154553 84 220 11.0 19.0 0.00 0.00 0.00 48 1013.6
20220704154052 84 243 10.0 19.0 0.00 0.00 0.00 47 1013.4